Tracking 19192 objects as of 19-Jun-2018
HD Live streaming from Space Station
objects crossing your sky now

FENGYUN 1C DEB

Track FENGYUN 1C DEB now!
10-day predictions


NORAD ID: 31244
Int'l Code: 1999-025BMA
Perigee: 812.3 km
Apogee: 968.0 km
Inclination: 99.3 °
Period: 102.6 minutes
Semi major axis: 7261 km
RCS: 0.0089 m2 (small)
Launch date: May 10, 1999
Source: People's Republic of China (PRC)
Launch site: Taiyaun Space Center, China (TSC)

Note: This is SATELLITE DEBRIS
aabbcc
Your satellite tracking list
Your tracking list is empty




NASA's NSSDC Master Catalog

Two Line Element Set (TLE):
1 31244U 99025BMA 18169.82195599 -.00000049  00000-0 -17388-5 0  9999
2 31244  99.2673 166.3432 0107226 177.7541 182.4127 14.03129515574166
Source of the keplerian elements: AFSPC